User: anonymous   Login
Location: Morlupo
(42.1333°N, 12.5000°E)
Time: 22:40:43
(UTC+00:00)
Language:

DMSP B5D2-2 - Orbit

View from above orbital plane
View from above orbital plane
View from above satellite
View from above satellite

Ground track
Ground track

The orbit data is extracted from the following two-line orbital elements,

1 14506U 83113A   20336.81479461  .00000062  00000-0  41200-4 0  9995
2 14506  98.3123 181.4033 0012395  89.2009 281.7897 14.28121861926566
Epoch (UTC): 01 December 2020 19:33:18
Eccentricity: 0.0012395
inclination: 98.3123°
perigee height: 789 km
apogee height: 807 km
right ascension of ascending node: 181.4033°
argument of perigee: 89.2009°
revolutions per day: 14.28121861
mean anomaly at epoch: 281.7897°
orbit number at epoch: 92656

The dashed part of the orbit path shows where the satellite is in the earth's shadow,  

DLR